Location: Mexico
(19.4000°N, 99.1500°W)
Time: 04:49:08
(UTC-06:00)

ISS - Pass Details

Date: 06 April 2020
Orbit: 417 x 419 km, 51.6° (Epoch: 31 May)

Event Time Altitude Azimuth Distance (km) Brightness Sun altitude
Rises 20:02:22 0° 346° (NNW) 2,350 0.4 -17.1°
Reaches altitude 10° 20:05:20 10° 15° (NNE) 1,485 -1.0 -17.8°
Enters shadow 20:06:05 12° 27° (NNE) 1,361 -1.3 -17.9°
